"startDT [UTC]","vpos","CH4 [ppm]","stdev(CH4) [ppm]","CO2 [ppm]","stdev(CO2) [ppm]","H2O_reported [%]","stdev(H2O_reported)","CavityPressure [torr]","CavityTemp [C]","OutletValve","CH4_dry [ppm]","CO2_dry [ppm]","DasTemp [C]","EtalonTemp [C]","WarmBoxTemp [C]","MPVPosition","T_ECpre [C]","T_EC1 [C]","T_EC2 [C]","p_inlet [hPa]","p_in [hPa]","p_out [hPa]","T_inlet [C]","RH_inlet [%]","dwpt_inlet [C]","T_vent [C]","RH_vent [%]","dwpt_vent [C]","flow_vent [l min-1]","flow_inlet [l min-1]","dwpt_sample [C]","T_room [C]"
2015-02-18 00:00:00,3.0,1.88587,0.02405,399.238,2.808,0.0351,0.0491,139.873,44.998,31522.34855,1.88973,399.589,35.528,45.065,44.998,0.00,0.09,-272.69,-272.76,-8,495,-3,22.0,4.4,-20.8,22.2,4.5,-20.5,5.73,2.04,-14.3,27.8
2015-02-18 00:01:00,3.0,1.87688,0.00039,397.455,0.036,0.0083,0.0019,139.995,44.997,31289.09352,1.87705,397.495,35.377,45.065,44.998,0.00,0.09,-272.69,-272.74,-8,496,-3,22.0,4.4,-20.9,22.1,4.5,-20.6,5.73,1.96,-14.3,27.8
2015-02-18 00:02:00,3.0,1.87656,0.00029,397.461,0.038,0.0090,0.0017,139.997,44.997,31230.39299,1.87671,397.501,35.181,45.065,44.998,0.00,0.09,-272.69,-272.75,-8,496,-3,22.0,4.4,-21.0,22.1,4.5,-20.6,5.73,1.86,-14.3,27.8
2015-02-18 00:03:00,3.0,1.87648,0.00041,397.571,0.034,0.0083,0.0017,139.998,44.997,31182.92616,1.87665,397.610,34.987,45.065,44.999,0.00,0.09,-272.69,-272.75,-9,496,-3,22.0,4.4,-20.9,22.1,4.5,-20.6,5.73,1.89,-14.3,27.7
2015-02-18 00:04:00,3.0,1.87647,0.00030,397.626,0.036,0.0063,0.0016,139.997,44.997,31142.36806,1.87659,397.656,34.763,45.066,44.999,0.00,0.09,-272.69,-272.75,-8,496,-3,22.0,4.4,-20.8,22.1,4.5,-20.6,5.73,2.02,-14.3,27.6
2015-02-18 00:05:00,3.0,1.87639,0.00032,397.633,0.031,0.0051,0.0016,139.998,44.997,31105.90787,1.87649,397.658,34.527,45.066,44.999,0.00,0.09,-272.69,-272.75,-9,497,-3,22.0,4.4,-20.9,22.1,4.5,-20.6,5.73,1.95,-14.3,27.5
2015-02-18 00:06:00,3.0,1.87635,0.00038,397.629,0.030,0.0037,0.0019,139.996,44.997,31074.21569,1.87642,397.647,34.294,45.067,45.000,0.00,0.09,-272.69,-272.75,-9,497,-3,22.0,4.4,-21.0,22.1,4.5,-20.7,5.73,1.83,-14.4,27.3
2015-02-18 00:07:00,3.0,1.87644,0.00032,397.645,0.027,0.0032,0.0008,139.998,44.997,31045.22075,1.87650,397.658,34.066,45.067,45.001,0.00,0.09,-272.69,-272.75,-8,498,-3,22.0,4.3,-21.1,22.0,4.4,-20.8,5.73,2.02,-14.3,27.1
2015-02-18 00:08:00,3.0,1.87641,0.00034,397.636,0.029,0.0030,0.0023,140.001,44.996,31022.45101,1.87645,397.651,33.859,45.068,45.001,0.00,0.09,-272.69,-272.74,-10,498,-3,22.1,4.3,-21.1,22.0,4.4,-20.8,5.73,1.90,-14.3,27.0
2015-02-18 00:09:00,3.0,1.87673,0.00032,397.664,0.035,0.0017,0.0015,139.997,44.996,30995.38827,1.87674,397.673,33.625,45.068,45.001,0.00,0.09,-272.69,-272.75,-8,498,-3,22.1,4.3,-21.1,22.0,4.4,-20.8,5.73,1.92,-14.4,27.0
2015-02-18 00:10:00,3.0,1.87644,0.00028,397.647,0.027,0.0017,0.0022,139.999,44.996,30976.88015,1.87652,397.656,33.382,45.067,45.000,0.00,0.09,-272.69,-272.75,-10,499,-3,22.1,4.3,-21.0,22.0,4.4,-20.8,5.73,1.96,-14.4,26.9
2015-02-18 00:11:00,3.0,1.87629,0.00035,397.633,0.032,0.0019,0.0020,140.001,44.996,30959.79456,1.87629,397.643,33.139,45.067,45.000,0.00,0.09,-272.69,-272.75,-9,499,-3,22.1,4.4,-20.9,22.0,4.5,-20.6,5.73,1.92,-14.4,26.8
2015-02-18 00:12:00,3.0,1.87640,0.00037,397.635,0.029,0.0011,0.0010,139.999,44.996,30941.40523,1.87644,397.640,32.902,45.067,45.000,0.00,0.09,-272.69,-272.75,-10,500,-3,22.0,4.4,-20.9,22.0,4.5,-20.6,5.73,1.92,-14.4,26.7
2015-02-18 00:13:00,3.0,1.87655,0.00030,397.639,0.032,0.0006,0.0013,139.999,44.996,30924.36352,1.87655,397.642,32.672,45.067,45.000,0.00,0.09,-272.69,-272.75,-10,500,-3,22.0,4.4,-21.0,21.9,4.5,-20.7,5.73,1.98,-14.4,26.7
2015-02-18 00:14:00,3.0,1.87640,0.00032,397.598,0.028,0.0005,0.0012,140.000,44.997,30911.78339,1.87642,397.601,32.485,45.067,45.000,0.00,0.09,-272.69,-272.75,-9,500,-3,21.9,4.3,-21.2,21.9,4.4,-20.9,5.73,1.84,-14.4,26.6
2015-02-18 00:15:00,3.0,1.87639,0.00027,397.615,0.015,0.0012,0.0017,140.001,44.997,30900.32593,1.87641,397.620,32.311,45.068,45.000,0.00,0.09,-272.69,-272.75,-11,500,-3,21.9,4.2,-21.4,21.8,4.4,-21.1,5.73,2.05,-14.5,26.4
2015-02-18 00:16:00,3.0,1.87614,0.00029,397.609,0.025,0.0008,0.0016,139.997,44.997,30889.61021,1.87617,397.613,32.151,45.067,45.000,0.00,0.09,-272.69,-272.75,-10,500,-3,21.8,4.2,-21.4,21.8,4.4,-21.1,5.73,1.80,-14.5,26.4
2015-02-18 00:17:00,3.0,1.87620,0.00035,397.610,0.035,0.0003,0.0018,140.002,44.997,30880.65139,1.87619,397.611,32.013,45.067,44.999,0.00,0.09,-272.69,-272.75,-10,501,-3,21.8,4.2,-21.5,21.7,4.3,-21.2,5.73,2.07,-14.5,26.3
2015-02-18 00:18:00,3.0,1.87633,0.00029,397.609,0.028,0.0008,0.0018,140.002,44.998,30871.76634,1.87638,397.614,31.908,45.067,44.999,0.00,0.09,-272.69,-272.75,-10,501,-3,21.8,4.2,-21.5,21.7,4.3,-21.2,5.73,1.81,-14.5,26.2
2015-02-18 00:19:00,3.0,1.87646,0.00041,397.600,0.029,0.0001,0.0020,140.000,44.998,30865.50132,1.87642,397.601,31.842,45.067,44.999,0.00,0.09,-272.70,-272.75,-9,502,-3,21.8,4.2,-21.5,21.7,4.4,-21.2,5.73,2.05,-14.6,26.2
2015-02-18 00:20:00,0.0,1.96104,0.01588,406.061,2.124,0.1229,0.0385,140.164,44.998,33860.48177,1.95978,406.458,31.810,45.067,44.999,0.00,0.09,-272.70,-272.76,-11,981,-3,21.7,4.2,-21.4,21.6,4.4,-21.2,5.73,1.82,-14.6,26.0
2015-02-18 00:21:00,0.0,1.96565,0.00031,406.769,0.031,0.1416,0.0014,140.004,44.999,33979.76319,1.96840,407.464,31.802,45.067,44.999,0.00,0.09,-272.69,-272.75,-10,982,-2,21.7,4.2,-21.4,21.6,4.4,-21.2,5.73,2.07,-14.6,25.9
2015-02-18 00:22:00,0.0,1.96572,0.00035,406.765,0.026,0.1424,0.0017,140.006,44.999,34038.44856,1.96846,407.464,31.776,45.067,44.999,0.00,0.09,-272.69,-272.75,-11,981,-2,21.7,4.2,-21.5,21.6,4.4,-21.2,5.73,1.83,-14.6,25.8
2015-02-18 00:23:00,0.0,1.96562,0.00043,406.754,0.029,0.1442,0.0020,140.004,45.000,34084.88980,1.96846,407.461,31.801,45.068,45.000,0.00,0.09,-272.70,-272.76,-9,981,-2,21.7,4.3,-21.3,21.6,4.4,-21.1,5.73,2.06,-14.7,26.0
2015-02-18 00:24:00,0.0,1.96594,0.00041,406.746,0.031,0.1470,0.0017,140.005,45.000,34123.67969,1.96875,407.467,31.844,45.068,44.999,0.00,0.09,-272.69,-272.75,-11,981,-2,21.8,4.3,-21.2,21.6,4.5,-21.0,5.73,1.92,-14.7,26.0
2015-02-18 00:25:00,0.0,1.96599,0.00057,406.788,0.030,0.1469,0.0012,140.003,45.000,34152.95461,1.96886,407.508,31.942,45.068,45.000,0.00,0.09,-272.69,-272.75,-10,981,-2,21.8,4.3,-21.2,21.7,4.4,-21.0,5.73,1.89,-14.7,26.1
2015-02-18 00:26:00,0.0,1.96557,0.00040,406.744,0.030,0.1469,0.0012,140.001,45.001,34183.66298,1.96846,407.465,32.060,45.068,45.001,0.00,0.09,-272.70,-272.76,-10,981,-2,21.8,4.3,-21.2,21.7,4.4,-21.0,5.73,2.05,-14.7,26.1
2015-02-18 00:27:00,0.0,1.96545,0.00027,406.733,0.023,0.1453,0.0023,140.002,45.002,34207.57763,1.96824,407.447,32.183,45.069,45.001,0.00,0.09,-272.69,-272.75,-10,980,-2,21.8,4.3,-21.2,21.7,4.4,-21.0,5.73,1.95,-14.7,26.2
2015-02-18 00:28:00,0.0,1.96547,0.00052,406.732,0.032,0.1436,0.0017,139.999,45.002,34230.67168,1.96827,407.437,32.344,45.069,45.001,0.00,0.09,-272.69,-272.75,-9,980,-2,21.8,4.3,-21.3,21.7,4.4,-21.1,5.73,1.87,-14.7,26.2
2015-02-18 00:29:00,0.0,1.96553,0.00036,406.721,0.032,0.1427,0.0009,139.999,45.003,34249.12242,1.96827,407.421,32.499,45.069,45.001,0.00,0.30,-270.90,-272.42,-10,980,-2,21.8,4.2,-21.4,21.7,4.4,-21.1,5.42,2.12,-17.0,26.2
2015-02-18 00:30:00,0.0,1.96571,0.00027,406.756,0.035,0.1431,0.0016,139.999,45.003,34267.18709,1.96849,407.457,32.647,45.069,45.001,0.00,0.09,-272.70,-272.76,-10,980,-2,21.9,4.2,-21.4,21.7,4.4,-21.1,5.73,2.03,-14.7,26.3
2015-02-18 00:31:00,0.0,1.96573,0.00031,406.737,0.024,0.1433,0.0014,139.999,45.003,34283.68733,1.96852,407.439,32.799,45.069,45.001,0.00,0.09,-272.69,-272.75,-9,980,-2,21.9,4.2,-21.4,21.8,4.4,-21.1,5.73,1.92,-14.7,26.4
2015-02-18 00:32:00,0.0,1.96539,0.00036,406.752,0.023,0.1438,0.0015,139.999,45.003,34299.74006,1.96819,407.458,32.965,45.069,45.001,0.00,0.09,-272.69,-272.75,-9,980,-2,21.9,4.2,-21.3,21.8,4.3,-21.1,5.73,1.89,-14.7,26.4
2015-02-18 00:33:00,0.0,1.96525,0.00049,406.718,0.035,0.1437,0.0020,140.001,45.003,34315.93099,1.96803,407.422,33.158,45.068,45.000,0.00,0.09,-272.70,-272.76,-10,979,-2,21.9,4.2,-21.3,21.8,4.4,-21.1,5.73,1.98,-14.7,26.5
2015-02-18 00:34:00,0.0,1.96619,0.00062,406.739,0.037,0.1451,0.0017,140.002,45.003,34328.50186,1.96899,407.451,33.327,45.068,45.000,0.00,0.09,-272.70,-272.75,-9,979,-2,22.0,4.3,-21.2,21.8,4.4,-21.1,5.73,2.03,-14.7,26.5
2015-02-18 00:35:00,0.0,1.96576,0.00031,406.719,0.023,0.1456,0.0014,139.998,45.003,34337.75804,1.96858,407.434,33.507,45.068,45.000,0.00,0.09,-272.69,-272.75,-9,979,-2,22.0,4.3,-21.2,21.9,4.4,-21.0,5.73,1.97,-14.7,26.6
2015-02-18 00:36:00,0.0,1.96569,0.00031,406.722,0.023,0.1443,0.0016,139.999,45.003,34347.84060,1.96847,407.430,33.643,45.067,44.999,0.00,0.09,-272.70,-272.75,-9,979,-3,22.0,4.3,-21.2,21.9,4.4,-21.1,5.73,1.90,-14.7,26.7
2015-02-18 00:37:00,0.0,1.96595,0.00027,406.731,0.029,0.1445,0.0023,140.002,45.003,34358.35354,1.96873,407.440,33.775,45.067,44.999,0.00,0.09,-272.69,-272.76,-10,978,-3,22.0,4.2,-21.3,21.9,4.4,-21.0,5.73,1.91,-14.7,26.7
2015-02-18 00:38:00,0.0,1.96619,0.00047,406.736,0.037,0.1454,0.0026,139.998,45.002,34368.18760,1.96903,407.450,33.896,45.067,45.000,0.00,0.09,-272.70,-272.75,-9,978,-3,22.0,4.3,-21.2,21.9,4.4,-21.0,5.73,1.96,-14.7,26.8
2015-02-18 00:39:00,0.0,1.96640,0.00045,406.742,0.029,0.1462,0.0014,140.002,45.002,34374.98436,1.96918,407.456,34.023,45.067,45.000,0.00,0.09,-272.70,-272.75,-9,978,-3,22.0,4.3,-21.2,22.0,4.4,-20.9,5.73,2.02,-14.4,26.8
2015-02-18 00:40:00,0.0,1.96665,0.00038,406.766,0.021,0.1473,0.0016,139.999,45.002,34381.80273,1.96951,407.490,34.150,45.068,45.000,0.00,0.09,-272.69,-272.75,-9,978,-3,22.1,4.3,-21.1,22.0,4.4,-20.8,5.73,2.00,-13.6,26.9
2015-02-18 00:41:00,0.0,1.96656,0.00034,406.736,0.032,0.1475,0.0018,140.001,45.002,34391.18534,1.96944,407.460,34.269,45.068,45.000,0.00,0.09,-272.69,-272.75,-9,978,-3,22.1,4.3,-21.0,22.0,4.4,-20.8,5.73,1.96,-13.7,27.0
2015-02-18 00:42:00,0.0,1.96665,0.00028,406.736,0.032,0.1481,0.0015,139.999,45.002,34398.38882,1.96954,407.463,34.400,45.068,45.000,0.00,0.09,-272.69,-272.75,-9,978,-3,22.1,4.3,-21.0,22.0,4.4,-20.8,5.73,1.92,-13.7,27.0
2015-02-18 00:43:00,0.0,1.96657,0.00038,406.728,0.024,0.1486,0.0017,140.000,45.002,34405.41422,1.96944,407.457,34.524,45.068,45.000,0.00,0.09,-272.70,-272.75,-9,978,-3,22.1,4.3,-21.0,22.1,4.4,-20.7,5.73,1.92,-13.8,27.1
2015-02-18 00:44:00,0.0,1.96651,0.00030,406.725,0.029,0.1494,0.0013,139.999,45.002,34411.53879,1.96943,407.458,34.639,45.068,45.000,0.00,0.09,-272.69,-272.75,-9,978,-3,22.1,4.3,-20.9,22.1,4.4,-20.7,5.73,1.93,-13.8,27.1
2015-02-18 00:45:00,0.0,1.96666,0.00035,406.737,0.029,0.1502,0.0017,139.998,45.002,34416.07751,1.96958,407.474,34.762,45.068,45.000,0.00,0.09,-272.69,-272.75,-9,978,-3,22.2,4.3,-20.9,22.1,4.4,-20.7,5.73,1.95,-13.9,27.2
2015-02-18 00:46:00,0.0,1.96649,0.00034,406.751,0.030,0.1505,0.0018,140.000,45.002,34422.10599,1.96940,407.489,34.881,45.068,45.000,0.00,0.09,-272.69,-272.75,-9,978,-3,22.2,4.3,-20.9,22.1,4.4,-20.6,5.73,1.97,-13.9,27.2
2015-02-18 00:47:00,0.0,1.96638,0.00033,406.734,0.023,0.1511,0.0015,140.004,45.002,34429.44296,1.96931,407.475,34.989,45.067,45.000,0.00,0.09,-272.69,-272.75,-9,977,-3,22.2,4.4,-20.8,22.1,4.5,-20.6,5.73,1.98,-13.9,27.3
2015-02-18 00:48:00,0.0,1.96637,0.00038,406.735,0.042,0.1513,0.0015,139.998,45.002,34432.10865,1.96928,407.478,35.087,45.067,45.000,0.00,0.09,-272.69,-272.75,-9,977,-3,22.2,4.4,-20.8,22.2,4.5,-20.6,5.73,1.98,-13.9,27.3
2015-02-18 00:49:00,0.0,1.96643,0.00028,406.735,0.033,0.1520,0.0015,140.002,45.002,34437.40212,1.96940,407.480,35.164,45.067,45.000,0.00,0.09,-272.69,-272.75,-9,977,-3,22.2,4.4,-20.7,22.2,4.5,-20.5,5.73,1.98,-14.0,27.4
2015-02-18 00:50:00,0.0,1.96606,0.00035,406.728,0.026,0.1516,0.0015,140.000,45.002,34441.59253,1.96900,407.471,35.230,45.067,45.000,0.00,0.09,-272.70,-272.75,-8,977,-3,22.2,4.4,-20.8,22.2,4.5,-20.5,5.73,1.97,-14.0,27.5
2015-02-18 00:51:00,0.0,1.96619,0.00025,406.733,0.033,0.1503,0.0015,140.001,45.002,34445.28435,1.96911,407.471,35.280,45.068,45.001,0.00,0.09,-272.69,-272.75,-8,977,-3,22.3,4.4,-20.8,22.3,4.4,-20.5,5.73,1.96,-14.0,27.5
2015-02-18 00:52:00,0.0,1.96613,0.00031,406.735,0.034,0.1502,0.0016,140.000,45.002,34450.52067,1.96904,407.471,35.357,45.068,45.001,0.00,0.09,-272.69,-272.75,-10,977,-4,22.3,4.3,-20.9,22.3,4.4,-20.6,5.73,1.96,-14.0,27.6
2015-02-18 00:53:00,0.0,1.96607,0.00038,406.778,0.031,0.1508,0.0018,139.999,45.002,34455.69422,1.96903,407.519,35.414,45.068,45.001,0.00,0.09,-272.69,-272.75,-9,977,-3,22.3,4.3,-20.9,22.3,4.4,-20.6,5.73,1.95,-14.0,27.6
2015-02-18 00:54:00,0.0,1.96618,0.00034,406.755,0.028,0.1506,0.0015,140.002,45.002,34459.02152,1.96911,407.493,35.477,45.068,45.001,0.00,0.09,-272.69,-272.75,-9,977,-3,22.3,4.3,-20.8,22.3,4.4,-20.6,5.73,1.96,-14.0,27.7
2015-02-18 00:55:00,0.0,1.96621,0.00036,406.729,0.027,0.1511,0.0019,139.999,45.002,34462.34859,1.96915,407.470,35.577,45.068,45.001,0.00,0.09,-272.69,-272.75,-9,977,-3,22.3,4.3,-20.8,22.3,4.4,-20.6,5.73,1.95,-14.0,27.7
2015-02-18 00:56:00,0.0,1.96606,0.00025,406.768,0.026,0.1513,0.0016,140.002,45.001,34467.42708,1.96899,407.511,35.652,45.068,45.001,0.00,0.09,-272.69,-272.75,-9,977,-3,22.4,4.3,-20.8,22.4,4.4,-20.6,5.73,1.95,-14.0,27.8
2015-02-18 00:57:00,0.0,1.96604,0.00029,406.765,0.031,0.1509,0.0020,140.001,45.001,34469.52662,1.96896,407.504,35.690,45.067,45.000,0.00,0.09,-272.69,-272.75,-9,977,-3,22.4,4.3,-20.8,22.4,4.4,-20.6,5.73,1.94,-14.0,27.9
2015-02-18 00:58:00,0.0,1.96625,0.00034,406.766,0.032,0.1497,0.0018,140.001,45.000,34467.97643,1.96915,407.501,35.675,45.067,44.999,0.00,0.09,-272.68,-272.74,-9,977,-3,22.3,4.3,-20.9,22.4,4.4,-20.6,5.73,1.92,-14.0,27.9
2015-02-18 00:59:00,0.0,1.96588,0.00033,406.753,0.037,0.1486,0.0017,140.000,45.000,34468.97458,1.96875,407.481,35.596,45.066,44.999,0.00,0.09,-272.69,-272.75,-9,977,-3,22.3,4.2,-21.1,22.4,4.3,-20.8,5.73,1.91,-14.0,27.9
2015-02-18 01:00:00,0.0,1.96580,0.00035,406.786,0.029,0.1469,0.0019,140.003,44.999,34464.59567,1.96868,407.507,35.473,45.065,44.998,0.00,0.09,-272.69,-272.75,-9,977,-3,22.3,4.2,-21.1,22.4,4.3,-20.8,5.73,1.93,-14.1,27.9
2015-02-18 01:01:00,0.0,1.96568,0.00034,406.783,0.026,0.1456,0.0019,140.001,44.998,34461.19138,1.96850,407.497,35.347,45.065,44.998,0.00,0.09,-272.69,-272.75,-9,977,-3,22.2,4.2,-21.2,22.4,4.3,-20.9,5.73,1.98,-14.1,27.8
2015-02-18 01:02:00,0.0,1.96566,0.00046,406.790,0.027,0.1447,0.0016,139.999,44.998,34456.46761,1.96845,407.501,35.187,45.065,44.998,0.00,0.09,-272.69,-272.75,-9,978,-3,22.2,4.2,-21.3,22.3,4.3,-21.0,5.73,2.03,-14.1,27.8
2015-02-18 01:03:00,0.0,1.96576,0.00043,406.767,0.039,0.1451,0.0022,140.001,44.997,34449.76160,1.96860,407.479,35.000,45.065,44.999,0.00,0.09,-272.69,-272.75,-9,978,-3,22.2,4.2,-21.3,22.3,4.3,-21.0,5.73,1.96,-14.1,27.8
2015-02-18 01:04:00,0.0,1.96551,0.00032,406.777,0.028,0.1452,0.0014,140.002,44.997,34445.34258,1.96833,407.489,34.814,45.066,44.999,0.00,0.09,-272.69,-272.74,-9,978,-3,22.2,4.2,-21.3,22.3,4.3,-21.0,5.73,1.87,-14.1,27.7
2015-02-18 01:05:00,0.0,1.96582,0.00038,406.792,0.028,0.1448,0.0021,139.999,44.997,34436.17208,1.96861,407.503,34.599,45.066,45.000,0.00,0.09,-272.69,-272.74,-9,979,-3,22.2,4.2,-21.3,22.3,4.3,-21.0,5.73,1.93,-14.1,27.6
2015-02-18 01:06:00,0.0,1.96589,0.00036,406.783,0.031,0.1455,0.0016,139.998,44.997,34428.74781,1.96873,407.498,34.411,45.066,45.000,0.00,0.09,-272.69,-272.75,-10,979,-3,22.2,4.2,-21.3,22.3,4.3,-21.0,5.73,2.04,-14.1,27.3
2015-02-18 01:07:00,0.0,1.96581,0.00043,406.807,0.029,0.1448,0.0019,140.000,44.997,34421.50428,1.96866,407.516,34.215,45.067,45.000,0.00,0.09,-272.69,-272.75,-9,979,-3,22.2,4.2,-21.2,22.2,4.3,-21.0,5.73,1.95,-14.2,27.2
2015-02-18 01:08:00,0.0,1.96570,0.00045,406.793,0.028,0.1458,0.0019,140.000,44.997,34413.63189,1.96850,407.509,34.020,45.067,45.000,0.00,0.09,-272.68,-272.75,-10,980,-3,22.2,4.2,-21.2,22.2,4.3,-21.0,5.73,1.86,-14.2,27.1
2015-02-18 01:09:00,0.0,1.96577,0.00034,406.795,0.030,0.1461,0.0012,139.997,44.997,34405.12660,1.96861,407.512,33.802,45.067,45.000,0.00,0.09,-272.69,-272.75,-10,981,-3,22.2,4.2,-21.2,22.2,4.3,-21.0,5.73,2.07,-14.2,26.9
2015-02-18 01:10:00,0.0,1.96591,0.00027,406.816,0.043,0.1462,0.0021,140.001,44.997,34398.55668,1.96873,407.533,33.598,45.067,45.000,0.00,0.09,-272.69,-272.75,-10,982,-3,22.2,4.2,-21.2,22.2,4.3,-21.0,5.73,1.86,-14.2,26.9
2015-02-18 01:11:00,0.0,1.96572,0.00039,406.804,0.030,0.1462,0.0014,140.001,44.997,34391.30653,1.96855,407.521,33.367,45.067,45.000,0.00,0.09,-272.69,-272.75,-10,982,-3,22.2,4.2,-21.3,22.2,4.3,-21.0,5.73,2.02,-14.2,26.7
2015-02-18 01:12:00,0.0,1.96583,0.00025,406.813,0.030,0.1448,0.0014,140.002,44.996,34383.96114,1.96866,407.523,33.132,45.067,45.000,0.00,0.09,-272.69,-272.75,-11,983,-3,22.2,4.2,-21.3,22.1,4.3,-21.1,5.73,1.89,-14.2,26.7
2015-02-18 01:13:00,0.0,1.96594,0.00037,406.805,0.029,0.1459,0.0012,139.999,44.997,34376.19631,1.96875,407.520,32.904,45.067,45.000,0.00,0.09,-272.69,-272.76,-10,983,-3,22.2,4.2,-21.3,22.1,4.3,-21.1,5.73,2.01,-14.2,26.7
2015-02-18 01:14:00,0.0,1.96603,0.00038,406.805,0.036,0.1453,0.0015,139.995,44.996,34367.72267,1.96885,407.519,32.694,45.067,45.000,0.00,0.09,-272.70,-272.75,-11,984,-3,22.1,4.2,-21.3,22.1,4.3,-21.1,5.73,1.88,-14.2,26.7
2015-02-18 01:15:00,0.0,1.96669,0.00045,406.799,0.033,0.1445,0.0021,140.000,44.997,34359.45495,1.96948,407.508,32.510,45.067,45.000,0.00,0.09,-272.69,-272.75,-10,984,-3,22.1,4.2,-21.4,22.0,4.3,-21.1,5.73,2.04,-14.2,26.7
2015-02-18 01:16:00,0.0,1.96660,0.00035,406.802,0.033,0.1454,0.0015,139.999,44.997,34351.54023,1.96943,407.516,32.337,45.067,45.000,0.00,0.09,-272.69,-272.74,-12,983,-3,22.0,4.2,-21.3,22.0,4.3,-21.1,5.73,1.84,-14.3,26.6
2015-02-18 01:17:00,0.0,1.96633,0.00029,406.808,0.024,0.1456,0.0017,140.000,44.997,34344.49825,1.96917,407.523,32.196,45.067,45.000,0.00,0.09,-272.70,-272.75,-10,985,-3,22.0,4.2,-21.4,21.9,4.3,-21.1,5.73,2.07,-14.3,26.5
2015-02-18 01:18:00,0.0,1.96609,0.00041,406.768,0.038,0.1455,0.0020,140.002,44.997,34339.60793,1.96891,407.483,32.074,45.067,45.000,0.00,0.09,-272.70,-272.75,-11,984,-4,22.0,4.2,-21.4,21.9,4.3,-21.1,5.73,1.83,-14.3,26.4
2015-02-18 01:19:00,0.0,1.96627,0.00040,406.797,0.025,0.1448,0.0017,140.000,44.998,34330.53007,1.96908,407.508,31.967,45.067,44.999,0.00,0.09,-272.69,-272.75,-11,984,-3,21.9,4.2,-21.4,21.8,4.3,-21.2,5.73,2.08,-14.3,26.3
2015-02-18 01:20:00,0.0,1.96678,0.00047,406.778,0.028,0.1455,0.0017,140.002,44.998,34325.56109,1.96957,407.490,31.886,45.067,45.000,0.00,0.09,-272.69,-272.76,-10,984,-3,21.9,4.2,-21.4,21.8,4.3,-21.2,5.73,1.83,-14.4,26.3
2015-02-18 01:21:00,0.0,1.96622,0.00038,406.766,0.030,0.1451,0.0016,139.997,44.998,34319.41778,1.96907,407.478,31.840,45.067,45.000,0.00,0.09,-272.69,-272.75,-11,984,-3,21.9,4.2,-21.4,21.8,4.3,-21.2,5.73,2.07,-14.4,26.1
2015-02-18 01:22:00,0.0,1.96596,0.00039,406.756,0.042,0.1442,0.0022,139.999,44.999,34315.83331,1.96877,407.464,31.820,45.068,45.000,0.00,0.09,-272.69,-272.75,-10,983,-3,21.8,4.2,-21.5,21.7,4.3,-21.2,5.73,1.87,-14.4,26.1
2015-02-18 01:23:00,0.0,1.96524,0.00041,406.757,0.030,0.1420,0.0020,140.003,44.999,34316.06544,1.96801,407.454,31.855,45.068,45.000,0.00,0.09,-272.70,-272.76,-11,983,-3,21.7,4.2,-21.6,21.7,4.3,-21.4,5.73,1.99,-14.5,26.0
2015-02-18 01:24:00,0.0,1.96568,0.00038,406.782,0.038,0.1403,0.0017,139.998,45.000,34315.09229,1.96839,407.471,31.878,45.068,45.000,0.00,0.09,-272.70,-272.75,-10,982,-3,21.7,4.1,-21.8,21.6,4.3,-21.5,5.73,1.99,-14.5,26.0
2015-02-18 01:25:00,0.0,1.96539,0.00036,406.789,0.036,0.1365,0.0016,139.999,45.000,34316.08561,1.96806,407.458,31.944,45.068,45.000,0.00,0.09,-272.69,-272.75,-10,982,-3,21.6,4.1,-22.0,21.6,4.2,-21.7,5.73,1.85,-14.5,26.1
2015-02-18 01:26:00,0.0,1.96569,0.00038,406.811,0.027,0.1362,0.0016,140.000,45.001,34316.89455,1.96831,407.480,32.037,45.068,45.000,0.00,0.09,-272.70,-272.76,-10,982,-3,21.6,4.0,-22.2,21.6,4.1,-21.9,5.73,2.04,-14.5,26.1
2015-02-18 01:27:00,0.0,1.96629,0.00054,406.810,0.030,0.1349,0.0013,140.001,45.001,34320.61112,1.96882,407.470,32.164,45.069,45.001,0.00,0.09,-272.70,-272.76,-9,982,-3,21.6,4.0,-22.2,21.7,4.1,-21.8,5.73,1.99,-14.5,26.1
2015-02-18 01:28:00,0.0,1.96734,0.00049,406.823,0.031,0.1354,0.0017,140.002,45.002,34324.32946,1.96996,407.488,32.303,45.069,45.001,0.00,0.09,-272.69,-272.76,-10,981,-2,21.7,4.0,-22.1,21.7,4.1,-21.9,5.73,1.86,-14.5,26.1
2015-02-18 01:29:00,0.0,1.96729,0.00042,406.840,0.028,0.1370,0.0019,140.002,45.002,34330.54657,1.96996,407.511,32.445,45.069,45.002,0.00,0.09,-272.69,-272.75,-10,981,-3,21.7,4.0,-22.1,21.7,4.1,-21.8,5.73,1.97,-14.5,26.2
2015-02-18 01:30:00,0.0,1.96624,0.00064,406.794,0.028,0.1389,0.0014,140.001,45.003,34336.89169,1.96900,407.477,32.604,45.069,45.001,0.00,0.09,-272.70,-272.75,-9,981,-3,21.7,4.1,-21.8,21.7,4.2,-21.6,5.73,2.04,-14.5,26.2
2015-02-18 01:31:00,0.0,1.96586,0.00041,406.787,0.030,0.1375,0.0014,139.998,45.003,34341.99197,1.96854,407.460,32.765,45.069,45.001,0.00,0.09,-272.70,-272.75,-10,980,-2,21.7,4.1,-21.9,21.7,4.2,-21.6,5.73,1.94,-14.6,26.2
2015-02-18 01:32:00,0.0,1.96559,0.00031,406.774,0.040,0.1372,0.0017,140.003,45.003,34349.29769,1.96827,407.447,32.946,45.069,45.001,0.00,0.09,-272.69,-272.75,-10,980,-3,21.7,4.1,-22.0,21.7,4.2,-21.7,5.73,1.88,-14.6,26.2
2015-02-18 01:33:00,0.0,1.96513,0.00034,406.776,0.030,0.1357,0.0016,140.002,45.003,34355.69164,1.96778,407.442,33.121,45.068,45.000,0.00,0.09,-272.70,-272.75,-9,980,-3,21.7,4.1,-22.0,21.7,4.1,-21.7,5.73,1.95,-14.5,26.3
2015-02-18 01:34:00,0.0,1.96540,0.00115,406.765,0.037,0.1373,0.0014,140.002,45.003,34360.74125,1.96799,407.438,33.294,45.068,45.000,0.00,0.09,-272.70,-272.76,-9,980,-3,21.7,4.1,-22.0,21.7,4.1,-21.7,5.73,2.02,-14.6,26.4
2015-02-18 01:35:00,0.0,1.96622,0.00051,406.810,0.038,0.1364,0.0024,140.002,45.003,34361.50879,1.96891,407.478,33.443,45.068,45.000,0.00,0.09,-272.69,-272.75,-10,979,-3,21.7,4.0,-22.0,21.8,4.1,-21.7,5.73,1.99,-14.6,26.5
2015-02-18 01:36:00,0.0,1.96564,0.00040,406.801,0.030,0.1373,0.0015,140.000,45.003,34365.73459,1.96831,407.475,33.579,45.068,45.000,0.00,0.09,-272.69,-272.75,-9,979,-3,21.8,4.1,-22.0,21.8,4.2,-21.6,5.73,1.93,-14.5,26.5
2015-02-18 01:37:00,0.0,1.96539,0.00070,406.766,0.025,0.1372,0.0021,140.000,45.003,34374.78711,1.96799,407.439,33.705,45.068,45.000,0.00,0.09,-272.70,-272.76,-9,979,-3,21.8,4.0,-22.0,21.8,4.1,-21.7,5.73,1.90,-14.5,26.5
2015-02-18 01:38:00,0.0,1.96622,0.00059,406.805,0.043,0.1340,0.0015,139.998,45.003,34379.98716,1.96885,407.461,33.851,45.068,45.000,0.00,0.09,-272.69,-272.75,-9,979,-3,21.8,4.0,-22.1,21.8,4.1,-21.8,5.73,1.94,-14.5,26.6
2015-02-18 01:39:00,0.0,1.96663,0.00029,406.833,0.030,0.1334,0.0016,140.001,45.002,34383.93926,1.96917,407.488,33.977,45.068,45.000,0.00,0.09,-272.69,-272.75,-9,978,-3,21.8,3.9,-22.3,21.8,4.0,-21.9,5.73,1.99,-14.5,26.6
2015-02-18 01:40:00,0.0,1.96654,0.00044,406.837,0.035,0.1319,0.0017,140.000,45.002,34388.24746,1.96913,407.483,34.111,45.068,45.000,0.00,0.09,-272.70,-272.76,-9,978,-3,21.8,3.9,-22.3,21.9,4.0,-22.0,5.73,2.00,-14.5,26.7
2015-02-18 01:41:00,0.0,1.96659,0.00041,406.830,0.036,0.1329,0.0016,139.996,45.002,34392.03540,1.96917,407.483,34.245,45.068,45.000,0.00,0.09,-272.70,-272.76,-9,978,-3,21.9,3.9,-22.2,21.9,4.0,-21.9,5.73,1.99,-14.5,26.8
2015-02-18 01:42:00,0.0,1.96666,0.00054,406.847,0.030,0.1326,0.0018,140.000,45.002,34397.68588,1.96922,407.498,34.382,45.068,45.000,0.00,0.09,-272.69,-272.75,-9,978,-3,21.9,3.9,-22.3,21.9,4.0,-22.0,5.73,1.96,-14.5,26.9
2015-02-18 01:43:00,0.0,1.96579,0.00038,406.814,0.022,0.1313,0.0019,140.001,45.002,34403.71608,1.96836,407.458,34.502,45.068,45.000,0.00,0.09,-272.70,-272.75,-9,978,-3,21.9,3.9,-22.3,21.9,4.0,-22.0,5.73,1.93,-14.5,26.9
2015-02-18 01:44:00,0.0,1.96619,0.00040,406.811,0.026,0.1307,0.0017,140.002,45.002,34408.11814,1.96871,407.451,34.596,45.068,45.000,0.00,0.09,-272.70,-272.75,-9,978,-3,21.9,3.9,-22.4,21.9,4.0,-22.1,5.73,1.92,-14.5,26.9
2015-02-18 01:45:00,0.0,1.96590,0.00036,406.837,0.036,0.1307,0.0011,139.998,45.002,34409.19326,1.96846,407.478,34.703,45.068,45.000,0.00,0.09,-272.69,-272.74,-9,977,-3,22.0,3.9,-22.4,22.0,3.9,-22.1,5.73,1.93,-14.5,27.0
2015-02-18 01:46:00,0.0,1.96585,0.00032,406.831,0.039,0.1324,0.0019,139.998,45.002,34414.12149,1.96842,407.481,34.778,45.068,45.000,0.00,0.09,-272.70,-272.75,-9,977,-3,22.0,3.9,-22.3,22.0,4.0,-22.0,5.73,1.94,-14.4,27.0